Regional Weather Roundup
Issued by NWS

Home | Current Version | Previous Version | Text Only | Print | Product List | Glossary On
Versions: 1 2 3 4 5 6 7 8 9 10 11 12 13 14 15 16 17 18 19 20 21 22 23 24 25 26 27 28 29 30 31 32 33 34 35 36 37 38 39 40 41 42 43 44 45 46 47 48 49 50
000
ASUS43 KBIS 020301
RWRND

NORTH DAKOTA REGIONAL WEATHER ROUNDUP
NATIONAL WEATHER SERVICE BISMARCK ND
900 PM CST SUN FEB 01 2015

NOTE: "FAIR" INDICATES FEW OR NO CLOUDS BELOW 12,000 FEET WITH NO
SIGNIFICANT WEATHER AND/OR OBSTRUCTIONS TO VISIBILITY.


NDZ001>003-009>011-017-020400-
NORTHWEST NORTH DAKOTA

CITY           SKY/WX    TMP DP  RH WIND       PRES   REMARKS
WILLISTON      PTCLDY     4  -2  76 S5        30.10F WCI  -5
MINOT          FAIR       3 -10  54 S13       30.15F WCI -14
MINOT AFB      PTCLDY     2  -7  66 SW13      30.15F WCI -16
$$

NDZ018>021-031>035-040>046-020400-
SOUTHWEST NORTH DAKOTA

CITY           SKY/WX    TMP DP  RH WIND       PRES   REMARKS
BISMARCK       MOCLDY    -3 -13  62 S3        30.26F
DICKINSON      PTCLDY     0  -5  79 S14       30.08F WCI -19
GARRISON         N/A     -5 -12  72 SW8       30.18F WCI -20
HETTINGER ARPT PTCLDY     0  -4  83 SE8       30.13F WCI -14
$$

NDZ004>008-012>016-024-026-027-054-020400-
NORTHEAST NORTH DAKOTA

CITY           SKY/WX    TMP DP  RH WIND       PRES   REMARKS
GRAND FORKS    CLEAR     -6 -12  75 S6        30.32F WCI -19
GRND FRKS AFB  PTCLDY    -5 -14  65 SW6       30.31F WCI -17
DEVILS LAKE    PTCLDY    -6 -15  65 SW3       30.21F
$$

NDZ022-023-025-028>030-036>039-047>053-020400-
SOUTHEAST NORTH DAKOTA

CITY           SKY/WX    TMP DP  RH WIND       PRES   REMARKS
FARGO          PTCLDY    -2 -12  62 SE3       30.34F
JAMESTOWN      PTCLDY    -2 -12  62 SW7       30.27F WCI -15
$$



USA.gov is the U.S. government's official web portal to all federal, state and local government web resources and services.